NR0Q Weather Reports


Display with metric or nautical units.
time (UTC)temp
F
wind
direction
speed
MPH
gust
MPH
rain 1hr
in
rain 24hr
in
rain mn
in
humidity
%
barometer
mb
20260507113001 40 233 2.0 4.0 0.00 0.00 0.00 94
20260507111502 41 314 4.0 8.0 0.00 0.00 0.00 93
20260507110001 41 102 2.0 2.0 0.00 0.00 0.00 93
20260507104501 41 204 2.0 4.0 0.00 0.00 0.00 93
20260507103001 42 105 0.0 4.0 0.00 0.00 0.00 92
20260507101501 42 1 2.0 4.0 0.00 0.00 0.00 92
20260507100002 42 244 2.0 4.0 0.00 0.00 0.00 92
20260507094502 42 86 0.0 2.0 0.00 0.00 0.00 93
20260507093001 41 218 0.0 2.0 0.00 0.00 0.00 92
20260507091501 41 338 2.0 2.0 0.00 0.00 0.00 92
20260507084501 41 315 0.0 2.0 0.00 0.00 0.00 91
20260507083001 42 230 0.0 0.0 0.00 0.00 0.00 90
20260507081501 42 166 0.0 0.0 0.00 0.00 0.00 89 1020.7
20260507080001 42 98 2.0 2.0 0.00 0.00 0.00 89 1020.7
20260507074501 43 66 0.0 2.0 0.00 0.00 0.00 87
20260507073001 43 225 0.0 0.0 0.00 0.00 0.00 87
20260507071501 44 110 0.0 0.0 0.00 0.00 0.00 85
20260507070001 44 307 0.0 0.0 0.00 0.00 0.00 82
20260507064501 45 150 0.0 0.0 0.00 0.00 0.00 81
20260507063001 47 150 0.0 0.0 0.00 0.00 0.00 78
20260507061502 48 62 0.0 0.0 0.00 0.00 0.00 75
20260507060001 50 76 0.0 0.0 0.00 0.00 0.00 67
20260507054501 51 45 0.0 0.0 0.00 0.00 0.00 61
20260507053001 50 339 4.0 0.0 0.00 0.00 0.00 61
20260507051501 48 345 0.0 0.0 0.00 0.00 0.00 66
20260507050001 47 224 0.0 0.0 0.00 0.00 0.00 81
20260507044501 47 186 0.0 0.0 0.00 0.00 0.00 80
20260507043001 47 245 0.0 0.0 0.00 0.00 0.00 77
20260507041501 47 142 0.0 0.0 0.00 0.00 0.00 77
20260507040001 47 141 0.0 0.0 0.00 0.00 0.00 78
20260507034501 48 37 0.0 0.0 0.00 0.00 0.00 77
20260507031501 50 323 0.0 0.0 0.00 0.00 0.00 73
20260507030001 50 130 0.0 0.0 0.00 0.00 0.00 68 1018.6
20260507024501 51 25 0.0 0.0 0.00 0.00 0.00 66 1018.6
20260507023001 52 154 0.0 0.0 0.00 0.00 0.00 64 1018.6
20260507021501 53 154 0.0 0.0 0.00 0.00 0.00 62 1018.6
20260507020001 55 142 0.0 0.0 0.00 0.00 0.00 58 1018.6
20260507014501 55 124 0.0 0.0 0.00 0.00 0.00 56 1018.6
20260507013001 57 15 0.0 0.0 0.00 0.00 0.00 51 1018.6
20260507011501 58 217 0.0 2.0 0.00 0.00 0.00 48 1018.6
20260507010001 60 66 0.0 0.0 0.00 0.00 0.00 47 1017.6
20260507004501 60 73 0.0 2.0 0.00 0.00 0.00 45 1017.6
20260507003001 61 335 4.0 4.0 0.00 0.00 0.00 44 1017.6
20260507001502 62 345 0.0 4.0 0.00 0.00 0.00 41 1017.6
20260507000002 62 321 6.0 8.0 0.00 0.00 0.00 39 1017.6
20260506234501 62 347 4.0 4.0 0.00 0.00 0.00 37 1017.6
20260506233001 63 51 6.0 6.0 0.00 0.00 0.00 40 1017.6
20260506231501 63 348 0.0 11.0 0.00 0.00 0.00 40 1016.6
20260506230001 64 47 4.0 8.0 0.00 0.00 0.00 41 1016.6
20260506224501 64 303 2.0 2.0 0.00 0.00 0.00 38 1016.6
20260506223001 64 344 2.0 4.0 0.00 0.00 0.00 39 1016.6
20260506221501 64 108 2.0 4.0 0.00 0.00 0.00 39 1016.6
20260506220001 64 315 2.0 2.0 0.00 0.00 0.00 38 1016.6
20260506214501 64 93 2.0 4.0 0.00 0.00 0.00 39 1016.6
20260506213001 63 56 2.0 2.0 0.00 0.00 0.00 40 1016.6
20260506211501 63 84 8.0 8.0 0.00 0.00 0.00 40 1016.6
20260506210002 63 39 2.0 2.0 0.00 0.00 0.00 42 1016.6
20260506204501 65 300 4.0 8.0 0.00 0.00 0.00 39 1017.6
20260506203001 65 250 2.0 4.0 0.00 0.00 0.00 40 1017.6
20260506201501 65 296 6.0 8.0 0.00 0.00 0.00 40 1017.6
20260506200001 65 7 13.0 2.0 0.00 0.00 0.00 40 1017.6
20260506194501 65 42 4.0 8.0 0.00 0.00 0.00 41 1017.6
20260506193002 64 102 13.0 4.0 0.00 0.00 0.00 43 1017.6
20260506191501 64 57 4.0 4.0 0.00 0.00 0.00 41 1017.6
20260506190001 64 163 13.0 8.0 0.00 0.00 0.00 42 1017.6
20260506184501 63 76 8.0 15.0 0.00 0.00 0.00 39 1018.6
20260506183001 63 81 4.0 4.0 0.00 0.00 0.00 41 1018.6
20260506181501 62 296 6.0 11.0 0.00 0.00 0.00 42 1018.6
20260506180001 62 66 8.0 15.0 0.00 0.00 0.00 44 1018.6
20260506174501 62 174 2.0 4.0 0.00 0.00 0.00 45 1018.6
20260506173001 62 177 2.0 4.0 0.00 0.00 0.00 47 1018.6
20260506171501 62 91 4.0 4.0 0.00 0.00 0.00 47
20260506170001 60 80 8.0 8.0 0.00 0.00 0.00 48
20260506164502 60 130 2.0 4.0 0.00 0.00 0.00 48
20260506163001 60 300 8.0 8.0 0.00 0.00 0.00 52
20260506161501 59 62 4.0 4.0 0.00 0.00 0.00 50
20260506154501 59 123 2.0 4.0 0.00 0.00 0.00 53 1018.6
20260506153001 57 78 4.0 13.0 0.00 0.00 0.00 57 1018.6
20260506151501 57 21 0.0 2.0 0.00 0.00 0.00 58 1018.6
20260506150002 56 76 4.0 8.0 0.00 0.00 0.00 60 1018.6
20260506144501 55 85 11.0 13.0 0.00 0.00 0.00 62 1017.6
20260506143001 54 100 4.0 13.0 0.00 0.00 0.00 64 1017.6
20260506141501 52 125 2.0 2.0 0.00 0.00 0.00 68 1017.6
20260506140001 51 136 4.0 4.0 0.00 0.00 0.00 69 1017.6
20260506134501 51 77 8.0 22.0 0.00 0.00 0.00 70 1018.6
20260506133002 50 340 0.0 6.0 0.00 0.00 0.00 72 1018.6
20260506131502 51 124 0.0 8.0 0.00 0.00 0.00 72 1017.6
20260506130001 49 71 6.0 4.0 0.00 0.00 0.00 74 1017.6
20260506124502 49 72 11.0 6.0 0.00 0.00 0.00 76 1018.6
20260506123001 49 150 2.0 4.0 0.00 0.00 0.00 77 1017.6
20260506121501 48 68 11.0 11.0 0.00 0.00 0.00 79 1017.6
20260506120001 48 91 6.0 6.0 0.00 0.00 0.00 80 1017.6
20260506114501 48 6 4.0 4.0 0.00 0.00 0.00 79 1017.6